Location: Copper Breaks State Park
(34.1132°N, 99.7492°W)
Time: 19:38:20
(UTC-05:00)

SL-16 R/B - Visible Passes

Search period start: 19 April 2014 00:00
Search period end: 29 April 2014 00:00
Orbit: 985 x 1008 km, 99.2° (Epoch: 19 April)

Date Brightness Start Highest point End Pass type
(mag) Time Alt. Az. Time Alt. Az. Time Alt. Az.
19 Apr 3.1 05:37:39 10° SSE 05:43:42 61° ENE 05:49:45 10° N visible
20 Apr 5.4 04:28:21 10° E 04:31:38 15° ENE 04:34:55 10° NNE visible
20 Apr 2.5 06:08:22 10° S 06:14:32 75° WSW 06:20:43 10° NNW visible
21 Apr 4.6 04:57:05 10° ESE 05:02:08 27° ENE 05:07:11 10° NNE visible
22 Apr 3.5 05:26:54 10° SE 05:32:47 49° ENE 05:38:41 10° N visible
23 Apr 5.5 04:18:43 10° E 04:20:51 12° ENE 04:22:58 10° NE visible
23 Apr 2.6 05:57:24 10° SSE 06:03:35 89° ENE 06:09:46 10° NNW visible
24 Apr 4.9 04:46:43 10° ESE 04:51:17 22° ENE 04:55:52 10° NNE visible
24 Apr 2.7 06:28:34 10° S 06:34:30 50° W 06:40:28 10° NNW visible
25 Apr 3.9 05:16:13 10° SE 05:21:54 40° ENE 05:27:34 10° N visible
26 Apr 2.8 05:46:30 10° SSE 05:52:38 74° ENE 05:58:47 10° N visible
27 Apr 5.2 04:36:29 10° ESE 04:40:28 18° ENE 04:44:27 10° NNE visible
27 Apr 2.6 06:17:27 10° S 06:23:31 62° WSW 06:29:37 10° NNW visible
28 Apr 4.3 05:05:38 10° SE 05:11:01 33° ENE 05:16:23 10° N visible
